Voltar ao catálogo

STARLINK-34845

AtivoComunicaçõesSSO
NORAD 65289·PAYLOAD·🇺🇸 United States

Lançado Aug 22, 2025 de Vandenberg Space Force Base

Loading…

Próximas Passagens (próximas 24 horas)

TLE

AtualizadoSource: CelesTrak SupGP

Época: Sep 14, 2026, 21:37 UTC

1 65289C 25184S   26257.90118056 -.00016984  00000+0 -52747-3 0  2576
2 65289  97.2837 305.9357 0000962  89.1698 335.0821 15.33433373    16

Acompanhe STARLINK-34845 em tempo real com AllMySat

Download on the App Store